sat.trackr.live / text

‹ back to catalog

STARLINK-2343

NORAD 47884 · 2021-021AA

PAYLOAD ACTIVE UNKNOWN

§ Identity

Operator
Country
US
Launch date
2021-03-14
Launch site
AFETR
Launch vehicle
Mass (kg)
RCS (m²)

Purposes: comms

External: N2YO · Heavens-Above · Gunter

§ Orbital elements

Epoch: 2026-05-24T20:49:41.331072Z

Period
94.01 min
Inclination
53.1584°
Eccentricity
0.0001181
Mean motion
15.31687251 rev/d
Perigee alt
470.0 km
Apogee alt
471.6 km
Semi-major
6,848.9 km
B*
7.8323e-5
RAAN
286.7154°
Arg perigee
83.5440°
Mean anomaly
276.5696°
Rev number
28,772

§ Raw data

STARLINK-23431 47884U 21021AA  26144.86783948  .00002065  00000+0  78323-4 0  99962 47884  53.1584 286.7154 0001181  83.5440 276.5696 15.31687251287723

JSON: /api/v1/satellites/47884 · /tle

For live sub-satellite position, see the globe view (requires WebGL).

§ Visibility from observer

Set your observer location to see the next 7 days of passes ≥ 10°. The values pass through the URL so the page stays shareable.

No JS? Fill the form by hand. The geolocation button needs JavaScript.